TimeAST,TemperatureF,Dew PointF,Humidity,Sea Level PressureIn,VisibilityMPH,Wind Direction,Wind SpeedMPH,Gust SpeedMPH,PrecipitationIn,Events,Conditions,WindDirDegrees,DateUTC
12:00 AM,82.4,75.2,79,29.89,6.2,East,8.1,-,N/A,,Partly Cloudy,100,2013-11-01 04:00:00
1:00 AM,82.4,73.4,74,29.89,6.2,East,6.9,-,N/A,,Partly Cloudy,100,2013-11-01 05:00:00
2:00 AM,81,74,73,29.86,25,East,8.1,,,,Partly Cloudy,90,2013-11-01 06:00:00
2:00 AM,80.6,73.4,79,29.86,6.2,East,6.9,-,N/A,,Partly Cloudy,90,2013-11-01 06:00:00
3:00 AM,80.6,73.4,79,29.83,6.2,ENE,8.1,-,N/A,,Partly Cloudy,70,2013-11-01 07:00:00
3:19 AM,80.6,73.4,79,29.86,1.6,East,10.4,26.5,N/A,Rain,Rain Showers,80,2013-11-01 07:19:00
4:00 AM,77.0,73.4,89,29.86,6.2,NNE,8.1,-,N/A,,Scattered Clouds,30,2013-11-01 08:00:00
5:00 AM,77,72,81,29.89,4,NE,12.7,,,Rain,Light Rain Showers,50,2013-11-01 09:00:00
5:00 AM,77.0,71.6,83,29.86,3.7,NE,12.7,-,N/A,Rain,Light Rain Showers,50,2013-11-01 09:00:00
6:00 AM,78.8,73.4,83,29.86,6.2,NE,11.5,-,N/A,,Scattered Clouds,50,2013-11-01 10:00:00
7:00 AM,80.6,75.2,84,29.89,6.2,ENE,6.9,-,N/A,,Scattered Clouds,70,2013-11-01 11:00:00
8:00 AM,82,74,72,29.90,25,East,10.4,,,,Partly Cloudy,90,2013-11-01 12:00:00
8:00 AM,82.4,75.2,79,29.89,6.2,East,11.5,-,N/A,,Partly Cloudy,80,2013-11-01 12:00:00
9:00 AM,84.2,73.4,70,29.89,6.2,East,13.8,-,N/A,,Scattered Clouds,90,2013-11-01 13:00:00
10:00 AM,84.2,75.2,74,29.92,6.2,East,13.8,-,N/A,,Scattered Clouds,90,2013-11-01 14:00:00
11:00 AM,85,75,65,29.91,25,East,15.0,,,,Partly Cloudy,90,2013-11-01 15:00:00
11:00 AM,84.2,75.2,74,29.89,6.2,East,16.1,-,N/A,,Scattered Clouds,90,2013-11-01 15:00:00
12:00 PM,84.2,75.2,74,29.89,6.2,East,16.1,-,N/A,,Scattered Clouds,100,2013-11-01 16:00:00
1:00 PM,84.2,75.2,74,29.86,6.2,East,12.7,-,N/A,,Scattered Clouds,100,2013-11-01 17:00:00
2:00 PM,83,74,67,29.86,28,East,15.0,,,,,100,2013-11-01 18:00:00
2:00 PM,84.2,73.4,70,29.86,6.2,East,15.0,-,N/A,,Scattered Clouds,100,2013-11-01 18:00:00
3:00 PM,84.2,75.2,74,29.83,6.2,East,12.7,-,N/A,,Scattered Clouds,100,2013-11-01 19:00:00
4:00 PM,77.0,73.4,89,29.86,3.7,ESE,16.1,34.5,N/A,Rain,Rain Showers,110,2013-11-01 20:00:00
5:00 PM,81,75,77,29.86,5,East,13.8,,,Rain,Light Rain Showers,90,2013-11-01 21:00:00
5:00 PM,80.6,75.2,84,29.86,5.0,East,13.8,-,N/A,Rain,Rain Showers,90,2013-11-01 21:00:00
6:00 PM,77.0,73.4,89,29.89,5.0,ESE,12.7,-,N/A,Rain,Rain Showers,110,2013-11-01 22:00:00
7:00 PM,78.8,75.2,89,29.86,5.0,East,15.0,-,N/A,Rain-Thunderstorm,Thunderstorms and Rain,90,2013-11-01 23:00:00
7:25 PM,78.8,75.2,89,29.89,5.0,ESE,16.1,28.8,N/A,Rain-Thunderstorm,Thunderstorms and Rain,110,2013-11-01 23:25:00
8:00 PM,80,75,82,29.91,5,ESE,17.3,,,Rain-Thunderstorm,Thunderstorms and Rain,120,2013-11-02 00:00:00
8:00 PM,80.6,75.2,84,29.89,5.0,ESE,17.3,-,N/A,Rain-Thunderstorm,Thunderstorms and Rain,120,2013-11-02 00:00:00
9:00 PM,80.6,75.2,84,29.92,6.2,ESE,16.1,-,N/A,Rain,Light Rain Showers,120,2013-11-02 01:00:00
10:00 PM,82.4,77.0,84,29.92,5.0,ESE,19.6,-,N/A,Rain,Light Rain Showers,120,2013-11-02 02:00:00
11:00 PM,82,75,75,29.94,12,SE,20.7,,,Rain,Light Rain Showers,130,2013-11-02 03:00:00
11:00 PM,82.4,75.2,79,29.92,6.2,SE,19.6,-,N/A,,Partly Cloudy,130,2013-11-02 03:00:00